Location: Catacaguana
(10.4120°N, 66.7591°W)
Time: 06:31:54
(UTC+00:00)

Milstar 3 Cent rocket - Pass Details

Date: 27 May 2022
Orbit: 706 x 5146 km, 28.3° (Epoch: 26 June)

Event Time Altitude Azimuth Distance (km) Brightness Sun altitude
Rises 00:54:18 0° 298° (WNW) 8,017 8.4 -29.5°
Reaches altitude 10° 01:01:02 10° 302° (WNW) 6,259 7.5 -30.9°
Maximum altitude 01:17:17 57° 18° (NNE) 2,023 4.0 -34.2°
Enters shadow 01:19:05 51° 54° (NE) 1,953 3.8 -34.6°
